Location: Caltech
(34.1382°N, 118.1253°W)
Time: 23:34:49
(UTC-07:00)

TMSAT-1 - Visible Passes

Search period start: 30 June 2015 00:00
Search period end: 10 July 2015 00:00
Orbit: 810 x 812 km, 98.5° (Epoch: 29 June)

Date Brightness Start Highest point End Pass type
(mag) Time Alt. Az. Time Alt. Az. Time Alt. Az.
30 Jun 10.0 03:02:16 10° NNE 03:07:16 42° E 03:09:07 31° SE visible
30 Jun 10.6 04:43:00 10° NNW 04:46:56 21° WNW 04:50:16 12° WSW visible
01 Jul 10.8 02:39:24 10° NE 02:43:36 24° E 02:45:18 21° ESE visible
01 Jul 10.0 04:18:49 10° N 04:23:36 34° WNW 04:26:27 20° WSW visible
02 Jul 11.4 02:17:16 10° ENE 02:19:50 14° E 02:21:29 13° ESE visible
02 Jul 9.3 03:54:59 10° N 04:00:12 58° WNW 04:02:38 31° SW visible
03 Jul 9.1 03:31:25 10° NNE 03:36:45 83° E 03:38:49 39° S visible
03 Jul 11.2 05:14:52 10° NW 05:16:04 10° WNW 05:16:54 10° WNW visible
04 Jul 9.8 03:08:06 10° NNE 03:13:13 48° E 03:15:00 35° SSE visible
04 Jul 10.7 04:49:12 10° NNW 04:52:49 18° WNW 04:56:09 10° WSW visible
05 Jul 10.6 02:45:07 10° NE 02:49:35 28° E 02:51:10 24° SE visible
05 Jul 10.1 04:24:53 10° N 04:29:29 30° WNW 04:32:19 18° WSW visible
06 Jul 11.2 02:22:42 10° NE 02:25:50 16° E 02:27:21 15° ESE visible
06 Jul 9.4 04:00:59 10° N 04:06:06 50° WNW 04:08:30 29° SW visible
07 Jul 9.0 03:37:20 10° NNE 03:42:41 85° WNW 03:44:40 40° SSW visible
08 Jul 9.5 03:13:57 10° NNE 03:19:10 56° E 03:20:51 39° SSE visible
08 Jul 10.9 04:55:28 10° NNW 04:58:41 16° WNW 05:01:39 10° W visible
09 Jul 10.4 02:50:52 10° NE 02:55:33 32° E 02:57:01 28° SE visible
09 Jul 10.3 04:30:59 10° NNW 04:35:22 26° WNW 04:38:10 17° WSW visible
